Weather History for CYBW - March, 2013

Change the Weather History Date:

Monday, March 4, 2013

  Actual Average Record
Temperature  
Mean Temperature 20 °F -  
Max Temperature 24 °F 36 °F 53 °F (2005)
Min Temperature 15 °F 14 °F -11 °F (2014)
Degree Days  
Heating Degree Days 46    
Moisture  
Dew Point 14 °F    
Average Humidity 80    
Maximum Humidity 93    
Minimum Humidity 64    
Precipitation  
Precipitation 0.01 in - - ()
Sea Level Pressure  
Sea Level Pressure 30.43 in    
Wind  
Wind Speed 5 mph ()    
Max Wind Speed 13 mph    
Max Gust Speed -    
Visibility 12.8 miles    
Events Snow    
Averages and records for this station are not official NWS values.
T = Trace of Precipitation, MM = Missing Value Source: Averaged Metar Reports

Daily Weather History Graph

Daily Weather History Graph

Search for Another Location

Airport or City:

Trip Planner

Search our weather history database for the weather conditions in past years. The results will help you decide how hot, cold, wet, or windy it might be!

Date:

Astronomy

Mar. 04, 2013 Rise Set
Actual Time 7:14 AM MST 6:24 PM MST
Civil Twilight 6:41 AM MST 6:57 PM MST
Nautical Twilight 6:03 AM MST 7:35 PM MST
Astronomical Twilight 5:24 AM MST 8:14 PM MST
Moon 1:57 AM MST (3/4) 10:40 AM MST (3/4)
Length of Visible Light 12h 15m
Length of Day
11h 09m
Waning Gibbous, 51% of the Moon is Illuminated
Mar 4
Waning Gibbous
Mar 4
Last Quarter
Mar 11
New
Mar 19
First Quarter
Mar 27
Full

Hourly Weather History & Observations

Time (MST) Temp. Windchill Dew Point Humidity Pressure Visibility Wind Dir Wind Speed Gust Speed Precip Events Conditions
6:00 AM 15.8 °F 7.2 °F 14.0 °F 93% 30.44 in 15.0 mi NE 5.8 mph - N/A   Overcast
7:00 AM 17.6 °F 9.3 °F 15.8 °F 93% 30.45 in 10.0 mi NE 5.8 mph - N/A   Overcast
8:00 AM 17.6 °F - 15.8 °F 93% 30.46 in 12.0 mi Calm Calm - N/A   Overcast
9:00 AM 19.4 °F 14.3 °F 15.8 °F 86% 30.47 in 12.0 mi East 3.5 mph - N/A   Overcast
9:48 AM 19.4 °F 12.8 °F 15.8 °F 86% 30.47 in 10.0 mi SSW 4.6 mph - N/A Snow Light Snow
10:00 AM 19.4 °F 11.5 °F 15.8 °F 86% 30.46 in 10.0 mi SSW 5.8 mph - N/A Snow Light Snow
11:00 AM 22 °F - 15 °F 65% 30.46 in 10 mi South 3.5 mph - - Snow Light Snow
11:00 AM 21.2 °F 16.4 °F 15.8 °F 80% 30.45 in 10.0 mi SSW 3.5 mph - N/A Snow Light Snow
12:00 PM 23.0 °F - 14.0 °F 68% 30.45 in 20.0 mi Calm Calm - N/A Snow Light Snow
12:36 PM 23.0 °F - 14.0 °F 68% 30.44 in 20.0 mi South 2.3 mph - N/A   Overcast
1:00 PM 24.8 °F 20.5 °F 14.0 °F 64% 30.43 in 20.0 mi ESE 3.5 mph - N/A   Overcast
2:00 PM 24.8 °F - 14.0 °F 64% 30.43 in 20.0 mi ENE 2.3 mph - N/A   Overcast
3:00 PM 24.8 °F 16.1 °F 15.8 °F 69% 30.40 in 20.0 mi ESE 8.1 mph - N/A   Mostly Cloudy
4:00 PM 23.0 °F 11.7 °F 15.8 °F 74% 30.40 in 15.0 mi SE 11.5 mph - N/A   Overcast
5:00 PM 21.2 °F 10.1 °F 15.8 °F 80% 30.40 in 15.0 mi SSE 10.4 mph - N/A   Overcast
6:00 PM 17.6 °F 7.3 °F 12.2 °F 79% 30.41 in 12.0 mi SE 8.1 mph - N/A   Mostly Cloudy
6:29 PM 17.6 °F 6.4 °F 12.2 °F 79% 30.42 in 7.0 mi SE 9.2 mph - N/A   Scattered Clouds
7:00 PM 15.8 °F 4.2 °F 12.2 °F 86% 30.42 in 7.0 mi SE 9.2 mph - N/A   Mostly Cloudy
8:00 PM 15.8 °F 3.4 °F 12.2 °F 86% 30.42 in 10.0 mi SE 10.4 mph - N/A   Mostly Cloudy
9:00 PM 15.8 °F 2.1 °F 14.0 °F 93% 30.40 in 7.0 mi SE 12.7 mph - N/A Snow Light Snow
10:00 PM 15.8 °F 5.1 °F 14.0 °F 93% 30.40 in 7.0 mi SE 8.1 mph - N/A Snow Light Snow